Overview Statistics Trail Chart Weather Telemetry Raw packets
 

This is the latest recevied weather packets stored in our database for station/object KE8WMS. If no packets are shown the sender has not sent any weather packets the latest 10 day(s).

<< 90 91 92 93 94 95 96 >>
Time Temp. Humidity Pressure Rain* Wind** Luminosity Snow
1777157961 7.22° C 99% 1011.7 hPa 0 mm - 17 W/m² -
1777157656 7.78° C 99% 1011.7 hPa 0 mm - 19 W/m² -
1777157354 7.78° C 99% 1011.6 hPa 0 mm - 20 W/m² -
1777157053 7.78° C 99% 1011.4 hPa 0 mm - 20 W/m² -
1777156748 7.78° C 99% 1011.5 hPa 0 mm - 25 W/m² -
1777156445 7.78° C 99% 1011.4 hPa 0 mm - 27 W/m² -
1777156141 7.78° C 99% 1011.3 hPa 0 mm - 31 W/m² -
1777155838 8.33° C 98% 1011.1 hPa 0 mm - 37 W/m² -
1777155538 8.33° C 98% 1011.2 hPa 0 mm - 37 W/m² -
1777155236 8.33° C 98% 1011.1 hPa 0 mm - 44 W/m² -
1777154933 8.33° C 98% 1011 hPa 0 mm - 36 W/m² -
1777154629 8.33° C 97% 1011.1 hPa 0 mm - 34 W/m² -
1777154326 8.33° C 97% 1010.9 hPa 0 mm - 35 W/m² -
1777154021 8.33° C 97% 1011 hPa 0 mm - 37 W/m² -
1777153717 8.33° C 96% 1010.5 hPa 0 mm - 52 W/m² -
1777153414 8.33° C 96% 1010.7 hPa 0 mm - 58 W/m² -
1777153110 8.89° C 96% 1010.7 hPa 0 mm - 63 W/m² -
1777152807 8.89° C 96% 1010.4 hPa 0 mm - 70 W/m² -
1777152503 8.89° C 95% 1010.3 hPa 0 mm - 79 W/m² -
1777152200 8.89° C 95% 1010.5 hPa 0 mm - 77 W/m² -
1777151895 8.89° C 95% 1010.3 hPa 0 mm - 79 W/m² -
1777151591 8.89° C 95% 1010.2 hPa 0 mm - 110 W/m² -
1777151288 8.89° C 95% 1010.3 hPa 0 mm - 112 W/m² -
1777150983 8.89° C 95% 1009.9 hPa 0 mm - 123 W/m² -
1777150683 8.89° C 96% 1010 hPa 0 mm - 109 W/m² -

* Rain latest hour (hover to see other rain measurements)
** Current wind speed in m/s (hover to see current wind gust speed)